| time (UTC) | temp F | wind direction | speed MPH | gust MPH | rain 1hr in | rain 24hr in | rain mn in | humidity % | barometer mb |
| 20260503043100 | 72 | 57 | 11.0 | 16.0 | 0.00 | 0.01 | 0.01 | 68 | 1019.6 |
| 20260503041605 | 72 | 48 | 12.0 | 16.0 | 0.00 | 0.01 | 0.01 | 66 | 1019.8 |
| 20260503040058 | 72 | 46 | 13.0 | 16.0 | 0.00 | 0.01 | 0.01 | 66 | 1019.8 |
| 20260503034556 | 72 | 49 | 12.0 | 16.0 | 0.00 | 0.01 | 0.01 | 66 | 1019.5 |
| 20260503033053 | 72 | 48 | 13.0 | 18.0 | 0.00 | 0.01 | 0.01 | 67 | 1019.4 |
| 20260503031552 | 72 | 59 | 14.0 | 19.0 | 0.00 | 0.01 | 0.01 | 67 | 1019.2 |
| 20260503030049 | 72 | 44 | 16.0 | 20.0 | 0.00 | 0.01 | 0.01 | 67 | 1018.5 |
| 20260503024550 | 71 | 50 | 16.0 | 20.0 | 0.00 | 0.01 | 0.01 | 65 | 1018.6 |
| 20260503023052 | 72 | 31 | 14.0 | 20.0 | 0.00 | 0.01 | 0.01 | 69 | 1018.7 |
| 20260503021555 | 72 | 53 | 15.0 | 20.0 | 0.00 | 0.01 | 0.01 | 70 | 1018.3 |
| 20260503020052 | 72 | 46 | 17.0 | 23.0 | 0.00 | 0.01 | 0.01 | 67 | 1018.1 |
| 20260503014545 | 72 | 39 | 18.0 | 22.0 | 0.00 | 0.01 | 0.01 | 69 | 1017.9 |
| 20260503013045 | 71 | 48 | 18.0 | 22.0 | 0.00 | 0.01 | 0.01 | 69 | 1017.6 |
| 20260503011551 | 72 | 44 | 17.0 | 22.0 | 0.00 | 0.01 | 0.01 | 70 | 1017.6 |
| 20260503010043 | 71 | 47 | 17.0 | 22.0 | 0.00 | 0.01 | 0.01 | 70 | 1017.6 |
| 20260503004541 | 71 | 29 | 15.0 | 21.0 | 0.00 | 0.01 | 0.01 | 73 | 1017.6 |
| 20260503003041 | 71 | 43 | 16.0 | 20.0 | 0.00 | 0.01 | 0.01 | 73 | 1017.4 |
| 20260503001541 | 71 | 34 | 17.0 | 23.0 | 0.00 | 0.01 | 0.01 | 73 | 1017.2 |
| 20260503000056 | 71 | 45 | 19.0 | 24.0 | 0.00 | 0.01 | 0.01 | 73 | 1017.1 |
| 20260502234539 | 71 | 38 | 19.0 | 25.0 | 0.00 | 0.01 | 0.01 | 73 | 1017.1 |
| 20260502233037 | 71 | 30 | 18.0 | 23.0 | 0.00 | 0.01 | 0.01 | 74 | 1017.0 |
| 20260502231539 | 71 | 36 | 18.0 | 26.0 | 0.00 | 0.01 | 0.01 | 76 | 1016.9 |
| 20260502230037 | 71 | 32 | 15.0 | 23.0 | 0.00 | 0.01 | 0.01 | 76 | 1016.7 |
| 20260502224536 | 71 | 5 | 13.0 | 20.0 | 0.00 | 0.01 | 0.01 | 78 | 1016.7 |
| 20260502223035 | 71 | 13 | 16.0 | 21.0 | 0.00 | 0.01 | 0.01 | 77 | 1016.8 |
| 20260502221534 | 71 | 13 | 16.0 | 21.0 | 0.00 | 0.01 | 0.01 | 76 | 1016.8 |
| 20260502220042 | 71 | 13 | 15.0 | 20.0 | 0.00 | 0.01 | 0.01 | 77 | 1016.7 |
| 20260502214537 | 70 | 360 | 16.0 | 21.0 | 0.00 | 0.01 | 0.01 | 78 | 1016.9 |
| 20260502213039 | 69 | 5 | 15.0 | 20.0 | 0.00 | 0.01 | 0.01 | 78 | 1017.0 |
| 20260502211536 | 69 | 9 | 17.0 | 24.0 | 0.00 | 0.01 | 0.01 | 79 | 1017.1 |
| 20260502210033 | 69 | 355 | 14.0 | 23.0 | 0.00 | 0.01 | 0.01 | 78 | 1017.2 |
| 20260502204530 | 68 | 360 | 15.0 | 21.0 | 0.00 | 0.01 | 0.01 | 80 | 1017.4 |
| 20260502203030 | 68 | 347 | 15.0 | 22.0 | 0.00 | 0.01 | 0.01 | 79 | 1017.7 |
| 20260502201529 | 68 | 349 | 14.0 | 22.0 | 0.00 | 0.01 | 0.01 | 79 | 1017.7 |
| 20260502200030 | 68 | 355 | 17.0 | 23.0 | 0.00 | 0.01 | 0.01 | 82 | 1017.6 |
| 20260502194528 | 67 | 355 | 16.0 | 23.0 | 0.00 | 0.01 | 0.01 | 81 | 1017.7 |
| 20260502193027 | 67 | 348 | 13.0 | 20.0 | 0.00 | 0.01 | 0.01 | 82 | 1017.8 |
| 20260502191526 | 66 | 355 | 15.0 | 22.0 | 0.00 | 0.01 | 0.01 | 82 | 1017.8 |
| 20260502190035 | 66 | 360 | 9.0 | 17.0 | 0.00 | 0.01 | 0.01 | 81 | 1018.1 |
| 20260502184526 | 66 | 355 | 13.0 | 21.0 | 0.00 | 0.01 | 0.01 | 82 | 1017.9 |
| 20260502183025 | 65 | 351 | 15.0 | 21.0 | 0.00 | 0.01 | 0.01 | 81 | 1018.1 |
| 20260502181524 | 66 | 331 | 11.0 | 18.0 | 0.00 | 0.01 | 0.01 | 82 | 1017.9 |
| 20260502163022 | 62 | 327 | 7.0 | 17.0 | 0.00 | 0.01 | 0.01 | 88 | 1018.4 |
| 20260502161518 | 62 | 344 | 14.0 | 19.0 | 0.00 | 0.01 | 0.01 | 87 | 1018.3 |
| 20260502151537 | 61 | 316 | 7.0 | 16.0 | 0.00 | 0.01 | 0.01 | 89 | 1018.0 |
| 20260502130104 | 61 | 355 | 12.0 | 20.0 | 0.00 | 0.01 | 0.01 | 91 | 1016.1 |
| 20260502123049 | 62 | 337 | 9.0 | 16.0 | 0.01 | 0.01 | 0.01 | 91 | 1015.4 |
| 20260502121546 | 62 | 343 | 7.0 | 16.0 | 0.01 | 0.01 | 0.01 | 91 | 1015.1 |
| 20260502114540 | 63 | 344 | 13.0 | 21.0 | 0.01 | 0.01 | 0.01 | 91 | 1014.3 |
| 20260502113136 | 63 | 22 | 13.0 | 20.0 | 0.00 | 0.00 | 0.00 | 91 | 1014.0 |
| 20260502111535 | 63 | 335 | 14.0 | 22.0 | 0.00 | 0.00 | 0.00 | 91 | 1013.7 |
| 20260502110035 | 63 | 355 | 14.0 | 22.0 | 0.00 | 0.00 | 0.00 | 90 | 1013.5 |
| 20260502104527 | 64 | 350 | 12.0 | 20.0 | 0.00 | 0.00 | 0.00 | 91 | 1013.4 |
| 20260502103024 | 64 | 5 | 12.0 | 22.0 | 0.00 | 0.00 | 0.00 | 90 | 1013.1 |
| 20260502101525 | 64 | 360 | 12.0 | 21.0 | 0.00 | 0.00 | 0.00 | 90 | 1013.1 |
| 20260502091512 | 64 | 333 | 9.0 | 18.0 | 0.00 | 0.00 | 0.00 | 90 | 1012.4 |
| 20260502070110 | 66 | 346 | 17.0 | 27.0 | 0.00 | 0.00 | 0.00 | 90 | 1011.3 |
| 20260502064613 | 67 | 338 | 19.0 | 28.0 | 0.00 | 0.00 | 0.00 | 90 | 1011.3 |
| 20260502063055 | 67 | 355 | 17.0 | 25.0 | 0.00 | 0.00 | 0.00 | 90 | 1011.1 |
| 20260502061553 | 67 | 344 | 17.0 | 24.0 | 0.00 | 0.00 | 0.00 | 90 | 1011.3 |
| 20260502060049 | 68 | 340 | 14.0 | 23.0 | 0.00 | 0.00 | 0.00 | 89 | 1011.2 |
| 20260502054647 | 69 | 360 | 14.0 | 21.0 | 0.00 | 0.00 | 0.00 | 88 | 1011.3 |
| 20260502053043 | 72 | 19 | 26.0 | 36.0 | 0.00 | 0.00 | 0.00 | 87 | 1011.0 |
| 20260502051540 | 73 | 360 | 23.0 | 34.0 | 0.00 | 0.00 | 0.00 | 86 | 1010.9 |
| 20260502050042 | 74 | 9 | 22.0 | 33.0 | 0.00 | 0.00 | 0.00 | 83 | 1010.7 |
| 20260502044535 | 74 | 346 | 24.0 | 34.0 | 0.00 | 0.00 | 0.00 | 82 | 1010.6 |